TimeEDT,TemperatureF,Dew PointF,Humidity,Sea Level PressureIn,VisibilityMPH,Wind Direction,Wind SpeedMPH,Gust SpeedMPH,PrecipitationIn,Events,Conditions,WindDirDegrees,DateUTC
12:15 AM,43.2,40.8,91,30.14,10.0,Calm,Calm,-,N/A,,Clear,0,2013-06-19 04:15:00
12:35 AM,43.2,41.4,93,30.13,10.0,Calm,Calm,-,N/A,,Clear,0,2013-06-19 04:35:00
12:54 AM,41.5,39.7,93,30.13,10.0,Calm,Calm,-,N/A,,Clear,0,2013-06-19 04:54:00
1:15 AM,39.9,38.8,96,30.14,10.0,Calm,Calm,-,N/A,,Clear,0,2013-06-19 05:15:00
1:35 AM,41.0,39.9,96,30.14,10.0,Calm,Calm,-,N/A,,Clear,0,2013-06-19 05:35:00
1:54 AM,39.2,38.3,97,30.13,10.0,Calm,Calm,-,N/A,,Clear,0,2013-06-19 05:54:00
2:15 AM,38.7,37.9,97,30.13,10.0,Calm,Calm,-,N/A,,Clear,0,2013-06-19 06:15:00
2:35 AM,38.3,37.6,97,30.13,10.0,Calm,Calm,-,N/A,,Clear,0,2013-06-19 06:35:00
2:54 AM,38.3,37.8,98,30.14,10.0,Calm,Calm,-,N/A,,Clear,0,2013-06-19 06:54:00
3:15 AM,36.5,35.6,97,30.14,10.0,Calm,Calm,-,N/A,,Clear,0,2013-06-19 07:15:00
3:35 AM,36.5,36.3,99,30.14,10.0,Calm,Calm,-,N/A,,Clear,0,2013-06-19 07:35:00
3:54 AM,36.5,36.5,100,30.15,10.0,Calm,Calm,-,N/A,,Clear,0,2013-06-19 07:54:00
4:15 AM,36.0,36.0,100,30.16,10.0,Calm,Calm,-,N/A,,Clear,0,2013-06-19 08:15:00
4:35 AM,35.8,35.8,100,30.17,10.0,Calm,Calm,-,N/A,,Clear,0,2013-06-19 08:35:00
4:54 AM,36.7,36.7,100,30.17,10.0,Calm,Calm,-,N/A,,Clear,0,2013-06-19 08:54:00
5:15 AM,35.8,35.8,100,30.17,10.0,Calm,Calm,-,N/A,,Clear,0,2013-06-19 09:15:00
5:35 AM,33.4,33.4,100,30.18,4.0,Calm,Calm,-,N/A,,Clear,0,2013-06-19 09:35:00
5:55 AM,35.4,35.4,100,30.19,10.0,Calm,Calm,-,N/A,,Clear,0,2013-06-19 09:55:00
6:15 AM,35.1,35.1,100,30.19,7.0,Calm,Calm,-,N/A,,Clear,0,2013-06-19 10:15:00
6:35 AM,35.8,35.8,100,30.20,10.0,Calm,Calm,-,N/A,,Clear,0,2013-06-19 10:35:00
6:55 AM,38.3,37.8,98,30.20,10.0,Calm,Calm,-,N/A,,Clear,0,2013-06-19 10:55:00
7:15 AM,40.6,39.4,95,30.20,10.0,Calm,Calm,-,N/A,,Clear,0,2013-06-19 11:15:00
7:34 AM,42.3,40.5,93,30.20,10.0,Calm,Calm,-,N/A,,Clear,0,2013-06-19 11:34:00
7:55 AM,46.8,43.3,88,30.20,10.0,Calm,Calm,-,N/A,,Clear,0,2013-06-19 11:55:00
8:15 AM,49.1,44.1,83,30.20,10.0,Calm,Calm,-,N/A,,Clear,0,2013-06-19 12:15:00
8:34 AM,53.6,45.9,75,30.20,10.0,Calm,Calm,-,N/A,,Clear,0,2013-06-19 12:34:00
8:55 AM,55.8,44.8,67,30.20,10.0,Calm,Calm,-,N/A,,Clear,0,2013-06-19 12:55:00
9:15 AM,58.5,44.1,59,30.20,10.0,SSE,3.5,-,N/A,,Clear,160,2013-06-19 13:15:00
9:34 AM,59.9,42.1,52,30.21,10.0,ESE,3.5,-,N/A,,Clear,110,2013-06-19 13:34:00
9:55 AM,62.8,40.5,44,30.21,10.0,South,8.1,-,N/A,,Clear,180,2013-06-19 13:55:00
10:15 AM,64.0,37.9,38,30.21,10.0,South,5.8,-,N/A,,Clear,170,2013-06-19 14:15:00
10:34 AM,65.8,38.5,37,30.21,10.0,South,8.1,-,N/A,,Clear,170,2013-06-19 14:34:00
10:55 AM,66.2,38.1,36,30.21,10.0,SW,6.9,-,N/A,,Clear,220,2013-06-19 14:55:00
11:15 AM,66.7,37.9,35,30.20,10.0,South,3.5,-,N/A,,Clear,190,2013-06-19 15:15:00
11:34 AM,68.5,39.2,34,30.20,10.0,SSW,4.6,-,N/A,,Clear,210,2013-06-19 15:34:00
11:55 AM,68.5,39.7,35,30.20,10.0,Calm,Calm,-,N/A,,Clear,0,2013-06-19 15:55:00
12:14 PM,68.5,39.0,34,30.19,10.0,West,3.5,-,N/A,,Clear,270,2013-06-19 16:14:00
12:35 PM,68.5,39.6,35,30.19,10.0,Calm,Calm,-,N/A,,Clear,0,2013-06-19 16:35:00
12:55 PM,68.5,37.8,32,30.18,10.0,Calm,Calm,-,N/A,,Clear,0,2013-06-19 16:55:00
1:14 PM,68.5,37.2,32,30.18,10.0,SSE,4.6,-,N/A,,Clear,160,2013-06-19 17:14:00
1:35 PM,71.1,40.1,32,30.17,10.0,SE,5.8,9.2,N/A,,Clear,140,2013-06-19 17:35:00
1:55 PM,70.0,38.3,31,30.16,10.0,Calm,Calm,-,N/A,,Clear,0,2013-06-19 17:55:00
2:14 PM,73.0,39.9,30,30.16,10.0,SE,5.8,-,N/A,,Clear,140,2013-06-19 18:14:00
2:35 PM,73.4,41.2,31,30.16,10.0,SSE,8.1,-,N/A,,Clear,160,2013-06-19 18:35:00
2:55 PM,73.6,41.2,31,30.15,10.0,WSW,6.9,-,N/A,,Clear,240,2013-06-19 18:55:00
3:14 PM,73.6,39.9,30,30.15,10.0,West,4.6,-,N/A,,Clear,260,2013-06-19 19:14:00
3:35 PM,73.6,39.6,29,30.14,10.0,ESE,5.8,-,N/A,,Clear,120,2013-06-19 19:35:00
3:55 PM,73.6,38.8,28,30.14,10.0,SSW,8.1,-,N/A,,Clear,210,2013-06-19 19:55:00
4:14 PM,73.6,38.1,28,30.14,10.0,SSW,6.9,-,N/A,,Clear,210,2013-06-19 20:14:00
4:35 PM,73.6,36.3,26,30.14,10.0,SSE,8.1,-,N/A,,Clear,150,2013-06-19 20:35:00
4:55 PM,73.6,37.2,27,30.13,10.0,SSE,5.8,-,N/A,,Clear,150,2013-06-19 20:55:00
5:14 PM,73.6,39.4,29,30.13,10.0,South,6.9,-,N/A,,Clear,190,2013-06-19 21:14:00
5:35 PM,73.6,41.2,31,30.13,10.0,SSE,9.2,-,N/A,,Clear,160,2013-06-19 21:35:00
5:55 PM,70.0,39.7,33,30.12,10.0,ESE,3.5,-,N/A,,Scattered Clouds,120,2013-06-19 21:55:00
6:14 PM,73.6,41.5,32,30.12,10.0,SSE,6.9,-,N/A,,Scattered Clouds,160,2013-06-19 22:14:00
6:35 PM,73.6,42.1,32,30.11,10.0,SSE,10.4,-,N/A,,Scattered Clouds,150,2013-06-19 22:35:00
6:55 PM,72.0,41.7,34,30.11,10.0,South,9.2,-,N/A,,Clear,190,2013-06-19 22:55:00
7:15 PM,73.4,43.2,34,30.12,10.0,South,6.9,-,N/A,,Clear,190,2013-06-19 23:15:00
7:35 PM,69.8,41.0,35,30.12,10.0,South,8.1,-,N/A,,Clear,170,2013-06-19 23:35:00
7:54 PM,69.8,41.9,36,30.12,10.0,South,6.9,-,N/A,,Clear,180,2013-06-19 23:54:00
8:15 PM,69.3,41.2,36,30.12,10.0,SSE,8.1,-,N/A,,Clear,160,2013-06-20 00:15:00
8:35 PM,68.5,43.0,40,30.12,10.0,Calm,Calm,-,N/A,,Scattered Clouds,0,2013-06-20 00:35:00
8:54 PM,68.5,48.4,49,30.13,10.0,NNW,10.4,-,N/A,,Clear,330,2013-06-20 00:54:00
9:15 PM,62.8,45.7,54,30.14,10.0,NW,5.8,-,N/A,,Clear,320,2013-06-20 01:15:00
9:35 PM,60.8,45.1,56,30.14,10.0,NW,4.6,-,N/A,,Clear,310,2013-06-20 01:35:00
9:54 PM,59.9,44.2,56,30.14,10.0,NW,3.5,-,N/A,,Clear,310,2013-06-20 01:54:00
10:15 PM,58.1,45.5,63,30.15,10.0,Calm,Calm,-,N/A,,Clear,0,2013-06-20 02:15:00
10:35 PM,53.6,45.9,75,30.16,10.0,Calm,Calm,-,N/A,,Clear,0,2013-06-20 02:35:00
10:54 PM,53.6,45.3,74,30.16,10.0,Calm,Calm,-,N/A,,Clear,0,2013-06-20 02:54:00
11:15 PM,53.6,48.9,84,30.16,10.0,Calm,Calm,-,N/A,,Clear,0,2013-06-20 03:15:00
11:35 PM,50.9,46.9,86,30.16,10.0,Calm,Calm,-,N/A,,Clear,0,2013-06-20 03:35:00
11:54 PM,50.2,46.6,87,30.16,10.0,Calm,Calm,-,N/A,,Clear,0,2013-06-20 03:54:00